FW4212 Weather Reports


Display with metric or nautical units.
time (UTC)temp
F
wind
direction
speed
MPH
gust
MPH
rain 1hr
in
rain 24hr
in
rain mn
in
humidity
%
barometer
mb
20260904214511 91 208 0.0 1.0 0.00 0.00 0.00 60 1014.4
20260904214010 92 331 0.0 3.0 0.00 0.00 0.00 53 1014.3
20260904213510 90 220 1.0 3.0 0.00 0.00 0.00 60 1014.3
20260904213014 90 208 0.0 3.0 0.00 0.00 0.00 57 1014.2
20260904212512 91 228 0.0 3.0 0.00 0.00 0.00 57 1014.4
20260904212010 91 223 1.0 3.0 0.00 0.00 0.00 53 1014.2
20260904211509 92 226 0.0 1.0 0.00 0.00 0.00 57 1014.2
20260904211008 92 226 0.0 2.0 0.00 0.00 0.00 54 1014.2
20260904210509 93 228 0.0 2.0 0.00 0.00 0.00 52 1014.4
20260904210011 93 232 0.0 3.0 0.00 0.00 0.00 51 1014.3
20260904205510 92 232 0.0 3.0 0.00 0.00 0.00 52 1014.4
20260904205007 92 285 0.0 2.0 0.00 0.00 0.00 57 1014.4
20260904204507 93 285 0.0 2.0 0.00 0.00 0.00 50 1014.3
20260904204007 93 288 1.0 2.0 0.00 0.00 0.00 50 1014.3
20260904203506 93 296 0.0 5.0 0.00 0.00 0.00 51 1014.4
20260904203010 93 205 2.0 5.0 0.00 0.00 0.00 49 1014.5
20260904202506 93 71 1.0 4.0 0.00 0.00 0.00 55 1014.6
20260904202005 93 129 1.0 4.0 0.00 0.00 0.00 49 1014.5
20260904201505 93 53 0.0 3.0 0.00 0.00 0.00 54 1014.6
20260904201005 93 112 0.0 6.0 0.00 0.00 0.00 50 1014.5
20260904200506 94 227 2.0 6.0 0.00 0.00 0.00 51 1014.5
20260904200004 94 272 0.0 3.0 0.00 0.00 0.00 56 1014.4
20260904195502 94 88 0.0 4.0 0.00 0.00 0.00 57 1014.7
20260904195002 93 95 1.0 4.0 0.00 0.00 0.00 51 1014.7
20260904194503 94 103 0.0 3.0 0.00 0.00 0.00 53 1014.8
20260904194100 94 128 0.0 2.0 0.00 0.00 0.00 52 1014.7
20260904193601 94 263 0.0 3.0 0.00 0.00 0.00 51 1014.8
20260904193059 94 217 1.0 3.0 0.00 0.00 0.00 47 1014.9
20260904192600 93 254 1.0 3.0 0.00 0.00 0.00 49 1015.1
20260904192056 93 22 0.0 3.0 0.00 0.00 0.00 51 1015.2
20260904191555 93 54 0.0 3.0 0.00 0.00 0.00 52 1015.4
20260904191054 94 296 0.0 2.0 0.00 0.00 0.00 57 1015.5
20260904190554 93 223 0.0 2.0 0.00 0.00 0.00 51 1015.6
20260904190053 93 57 0.0 4.0 0.00 0.00 0.00 52 1015.8
20260904185551 93 117 1.0 4.0 0.00 0.00 0.00 50 1015.8
20260904185050 93 67 1.0 4.0 0.00 0.00 0.00 56 1015.8
20260904184549 93 49 1.0 3.0 0.00 0.00 0.00 57 1015.8
20260904184049 93 97 0.0 2.0 0.00 0.00 0.00 53 1015.9
20260904183547 93 5 0.0 3.0 0.00 0.00 0.00 56 1016.0
20260904183107 92 100 1.0 5.0 0.00 0.00 0.00 53 1016.0
20260904182546 92 100 0.0 5.0 0.00 0.00 0.00 57 1016.1
20260904182045 92 123 1.0 6.0 0.00 0.00 0.00 55 1016.1
20260904181600 92 95 3.0 7.0 0.00 0.00 0.00 54 1016.2
20260904181044 92 126 1.0 3.0 0.00 0.00 0.00 58 1016.3
20260904180543 92 76 0.0 5.0 0.00 0.00 0.00 57 1016.3
20260904180044 92 131 1.0 5.0 0.00 0.00 0.00 60 1016.3
20260904175542 92 113 2.0 4.0 0.00 0.00 0.00 58 1016.3
20260904175042 92 110 1.0 4.0 0.00 0.00 0.00 57 1016.4
20260904174542 92 276 0.0 4.0 0.00 0.00 0.00 62 1016.4
20260904174043 91 248 1.0 3.0 0.00 0.00 0.00 58 1016.6
20260904173542 92 360 0.0 3.0 0.00 0.00 0.00 59 1016.6
20260904173041 91 101 1.0 4.0 0.00 0.00 0.00 59 1016.8
20260904172541 91 98 1.0 4.0 0.00 0.00 0.00 58 1016.9
20260904172041 91 187 1.0 4.0 0.00 0.00 0.00 58 1017.0
20260904171542 91 44 1.0 8.0 0.00 0.00 0.00 60 1017.0
20260904171040 92 107 2.0 8.0 0.00 0.00 0.00 58 1017.0
20260904170542 92 340 1.0 4.0 0.00 0.00 0.00 61 1017.1
20260904170040 91 127 0.0 4.0 0.00 0.00 0.00 55 1017.1
20260904165540 91 44 0.0 2.0 0.00 0.00 0.00 62 1017.1
20260904165039 91 101 0.0 3.0 0.00 0.00 0.00 61 1017.1
20260904164545 91 134 1.0 4.0 0.00 0.00 0.00 55 1017.2
20260904164040 91 98 0.0 4.0 0.00 0.00 0.00 63 1017.3
20260904163537 91 259 1.0 3.0 0.00 0.00 0.00 61 1017.4
20260904163037 91 267 0.0 1.0 0.00 0.00 0.00 61 1017.5
20260904162539 90 250 0.0 2.0 0.00 0.00 0.00 60 1017.5
20260904162036 90 344 0.0 2.0 0.00 0.00 0.00 68 1017.6
20260904161535 90 321 0.0 1.0 0.00 0.00 0.00 67 1017.6
20260904161038 89 321 0.0 3.0 0.00 0.00 0.00 65 1017.7
20260904160534 90 321 0.0 3.0 0.00 0.00 0.00 65 1017.6
20260904160033 89 281 0.0 2.0 0.00 0.00 0.00 68 1017.6
20260904155530 89 328 0.0 2.0 0.00 0.00 0.00 69 1017.7
20260904155029 88 177 0.0 3.0 0.00 0.00 0.00 67 1017.6
20260904154543 88 205 1.0 3.0 0.00 0.00 0.00 67 1017.7
20260904154032 87 78 0.0 3.0 0.00 0.00 0.00 69 1017.8
20260904153527 87 191 0.0 3.0 0.00 0.00 0.00 72 1017.7
20260904153027 87 217 0.0 2.0 0.00 0.00 0.00 69 1017.8
20260904152529 87 226 0.0 2.0 0.00 0.00 0.00 70 1017.7
20260904152026 86 221 0.0 2.0 0.00 0.00 0.00 71 1017.8
20260904151525 86 97 0.0 2.0 0.00 0.00 0.00 71 1017.8
20260904151025 86 157 0.0 4.0 0.00 0.00 0.00 73 1017.9
20260904150524 86 125 0.0 4.0 0.00 0.00 0.00 76 1017.9
20260904150023 86 280 0.0 2.0 0.00 0.00 0.00 76 1017.8
20260904145522 85 228 0.0 2.0 0.00 0.00 0.00 74 1017.9
20260904145021 85 226 0.0 2.0 0.00 0.00 0.00 74 1017.8
20260904144522 85 222 0.0 3.0 0.00 0.00 0.00 74 1017.9
20260904144024 85 305 0.0 3.0 0.00 0.00 0.00 77 1017.9
20260904143520 84 273 0.0 2.0 0.00 0.00 0.00 79 1017.8
20260904143029 84 257 0.0 3.0 0.00 0.00 0.00 80 1017.9
20260904142519 83 257 0.0 5.0 0.00 0.00 0.00 75 1017.9
20260904142023 83 234 2.0 5.0 0.00 0.00 0.00 75 1017.8
20260904141518 83 321 0.0 3.0 0.00 0.00 0.00 79 1017.8
20260904141016 82 319 1.0 3.0 0.00 0.00 0.00 77 1017.8
20260904140515 82 281 0.0 3.0 0.00 0.00 0.00 80 1017.8
20260904140031 82 254 0.0 3.0 0.00 0.00 0.00 81 1017.8
20260904135515 81 263 1.0 3.0 0.00 0.00 0.00 81 1017.9
20260904135011 81 217 0.0 3.0 0.00 0.00 0.00 82 1017.8
20260904134510 80 220 1.0 3.0 0.00 0.00 0.00 82 1017.7
20260904134009 80 211 1.0 4.0 0.00 0.00 0.00 82 1017.7
20260904133509 80 225 2.0 4.0 0.00 0.00 0.00 82 1017.6
20260904133008 80 257 1.0 3.0 0.00 0.00 0.00 83 1017.5
20260904132508 79 201 0.0 4.0 0.00 0.00 0.00 84 1017.6
20260904132010 79 254 0.0 3.0 0.00 0.00 0.00 85 1017.6
20260904131505 79 223 0.0 3.0 0.00 0.00 0.00 86 1017.5
20260904131005 78 228 0.0 4.0 0.00 0.00 0.00 88 1017.6
20260904130503 78 229 1.0 4.0 0.00 0.00 0.00 88 1017.6
20260904130003 78 213 0.0 3.0 0.00 0.00 0.00 89 1017.5
20260904125600 77 243 0.0 2.0 0.00 0.00 0.00 91 1017.6
20260904125101 76 271 0.0 2.0 0.00 0.00 0.00 93 1017.5
20260904124601 75 222 0.0 0.0 0.00 0.00 0.00 94 1017.5
20260904124057 75 222 0.0 0.0 0.00 0.00 0.00 96 1017.5
20260904123558 74 222 0.0 2.0 0.00 0.00 0.00 96 1017.6
20260904123057 74 211 0.0 2.0 0.00 0.00 0.00 97 1017.6
20260904122558 73 206 0.0 1.0 0.00 0.00 0.00 97 1017.6
20260904122057 72 206 0.0 0.0 0.00 0.00 0.00 97 1017.6
20260904121559 72 206 0.0 2.0 0.00 0.00 0.00 97 1017.5
20260904121100 72 206 0.0 2.0 0.00 0.00 0.00 97 1017.6
20260904120556 72 206 0.0 0.0 0.00 0.00 0.00 98 1017.5
20260904120100 71 206 0.0 0.0 0.00 0.00 0.00 97 1017.5
20260904115555 71 206 0.0 0.0 0.00 0.00 0.00 97 1017.5
20260904115055 71 206 0.0 0.0 0.00 0.00 0.00 98 1017.5
20260904114555 71 206 0.0 0.0 0.00 0.00 0.00 97 1017.5
20260904114055 70 206 0.0 0.0 0.00 0.00 0.00 97 1017.5
20260904113555 70 206 0.0 0.0 0.00 0.00 0.00 97 1017.4
20260904113054 70 206 0.0 0.0 0.00 0.00 0.00 97 1017.4
20260904112554 70 206 0.0 0.0 0.00 0.00 0.00 97 1017.4
20260904112054 70 206 0.0 0.0 0.00 0.00 0.00 97 1017.4
20260904111601 70 206 0.0 0.0 0.00 0.00 0.00 97 1017.4
20260904111055 70 206 0.0 0.0 0.00 0.00 0.00 97 1017.4
20260904110553 70 206 0.0 0.0 0.00 0.00 0.00 97 1017.4
20260904110056 70 206 0.0 0.0 0.00 0.00 0.00 97 1017.3
20260904105552 70 206 0.0 0.0 0.00 0.00 0.00 97 1017.3
20260904105054 70 206 0.0 0.0 0.00 0.00 0.00 97 1017.3
20260904104557 70 206 0.0 0.0 0.00 0.00 0.00 97 1017.3
20260904104050 70 206 0.0 0.0 0.00 0.00 0.00 97 1017.2
20260904103549 70 206 0.0 0.0 0.00 0.00 0.00 97 1017.2
20260904103050 70 206 0.0 0.0 0.00 0.00 0.00 97 1017.1
20260904102550 70 206 0.0 0.0 0.00 0.00 0.00 97 1017.1
20260904102049 70 206 0.0 0.0 0.00 0.00 0.00 97 1017.0
20260904101549 70 206 0.0 0.0 0.00 0.00 0.00 97 1017.1
20260904101052 70 206 0.0 0.0 0.00 0.00 0.00 97 1017.0
20260904100551 70 206 0.0 0.0 0.00 0.00 0.00 97 1017.0
20260904100048 70 206 0.0 0.0 0.00 0.00 0.00 97 1016.9
20260904095547 70 206 0.0 0.0 0.00 0.00 0.00 97 1016.8
20260904095046 71 206 0.0 0.0 0.00 0.00 0.00 97 1016.8
20260904094547 71 206 0.0 0.0 0.00 0.00 0.00 97 1016.8
20260904094049 71 206 0.0 0.0 0.00 0.00 0.00 97 1016.7
20260904093546 71 206 0.0 0.0 0.00 0.00 0.00 97 1016.7
20260904093047 71 206 0.0 0.0 0.00 0.00 0.00 97 1016.5
20260904092544 71 206 0.0 0.0 0.00 0.00 0.00 97 1016.5
20260904092045 71 206 0.0 0.0 0.00 0.00 0.00 97 1016.6
20260904091545 71 206 0.0 0.0 0.00 0.00 0.00 97 1016.5
20260904091044 71 206 0.0 0.0 0.00 0.00 0.00 97 1016.6
20260904090543 71 206 0.0 0.0 0.00 0.00 0.00 97 1016.5
20260904090043 71 206 0.0 0.0 0.00 0.00 0.00 97 1016.4
20260904085547 71 206 0.0 0.0 0.00 0.00 0.00 97 1016.5
20260904085043 71 206 0.0 0.0 0.00 0.00 0.00 97 1016.5
20260904084544 71 206 0.0 0.0 0.00 0.00 0.00 97 1016.5
20260904084042 71 206 0.0 0.0 0.00 0.00 0.00 97 1016.5
20260904083542 71 206 0.0 0.0 0.00 0.00 0.00 97 1016.4
20260904083042 71 206 0.0 0.0 0.00 0.00 0.00 97 1016.2
20260904082543 71 206 0.0 0.0 0.00 0.00 0.00 97 1016.3
20260904082043 72 206 0.0 0.0 0.00 0.00 0.00 97 1016.2
20260904081540 72 206 0.0 0.0 0.00 0.00 0.00 96 1016.3
20260904081040 72 206 0.0 0.0 0.00 0.00 0.00 96 1016.4
20260904080540 72 206 0.0 0.0 0.00 0.00 0.00 96 1016.3
20260904080040 72 206 0.0 0.0 0.00 0.00 0.00 96 1016.3
20260904075540 72 206 0.0 0.0 0.00 0.00 0.00 96 1016.4
20260904075039 72 206 0.0 0.0 0.00 0.00 0.00 96 1016.3
20260904074544 72 206 0.0 0.0 0.00 0.00 0.00 96 1016.2
20260904074036 72 206 0.0 0.0 0.00 0.00 0.00 96 1016.4
20260904073540 72 206 0.0 0.0 0.00 0.00 0.00 96 1016.4
20260904073036 72 206 0.0 0.0 0.00 0.00 0.00 96 1016.3
20260904072536 72 206 0.0 0.0 0.00 0.00 0.00 96 1016.3
20260904072035 72 206 0.0 0.0 0.00 0.00 0.00 96 1016.4
20260904071542 73 206 0.0 0.0 0.00 0.00 0.00 96 1016.5
20260904071034 73 206 0.0 0.0 0.00 0.00 0.00 96 1016.8
20260904070534 73 206 0.0 0.0 0.00 0.00 0.00 96 1016.7
20260904070033 73 206 0.0 0.0 0.00 0.00 0.00 96 1016.7
20260904065532 73 206 0.0 0.0 0.00 0.00 0.00 96 1016.7
20260904065133 73 206 0.0 0.0 0.00 0.00 0.00 96 1016.7
20260904064536 73 206 0.0 0.0 0.00 0.00 0.00 96 1016.7
20260904064031 73 206 0.0 0.0 0.00 0.00 0.00 95 1016.7
20260904063531 73 206 0.0 0.0 0.00 0.00 0.00 96 1016.7
20260904063035 73 206 0.0 0.0 0.00 0.00 0.00 95 1016.9
20260904062530 73 206 0.0 0.0 0.00 0.00 0.00 95 1016.9
20260904062029 73 206 0.0 0.0 0.00 0.00 0.00 95 1017.0
20260904061529 73 206 0.0 0.0 0.00 0.00 0.00 95 1017.0
20260904061028 73 206 0.0 0.0 0.00 0.00 0.00 95 1017.0
20260904060528 74 206 0.0 0.0 0.00 0.00 0.00 95 1016.9
20260904060028 74 206 0.0 0.0 0.00 0.00 0.00 95 1017.1
20260904055526 74 206 0.0 0.0 0.00 0.00 0.00 95 1017.2
20260904055025 74 206 0.0 0.0 0.00 0.00 0.00 95 1017.2
20260904054533 74 206 0.0 0.0 0.00 0.00 0.00 95 1017.2
20260904054025 74 206 0.0 0.0 0.00 0.00 0.00 95 1017.2
20260904053524 74 206 0.0 0.0 0.00 0.00 0.00 95 1017.3
20260904053028 74 206 0.0 0.0 0.00 0.00 0.00 95 1017.3
20260904052524 74 206 0.0 0.0 0.00 0.00 0.00 95 1017.3
20260904052025 74 206 0.0 0.0 0.00 0.00 0.00 95 1017.4
20260904051523 74 206 0.0 0.0 0.00 0.00 0.00 95 1017.4
20260904051022 74 206 0.0 0.0 0.00 0.00 0.00 95 1017.4
20260904050524 74 206 0.0 0.0 0.00 0.00 0.00 94 1017.6
20260904050021 74 206 0.0 0.0 0.00 0.00 0.00 94 1017.5
20260904045523 74 206 0.0 0.0 0.00 0.00 0.00 95 1017.6
20260904045020 75 206 0.0 0.0 0.00 0.00 0.00 95 1017.5
20260904044519 75 206 0.0 0.0 0.00 0.00 0.00 95 1017.6
20260904044019 75 206 0.0 0.0 0.00 0.00 0.00 95 1017.6
20260904043518 75 206 0.0 0.0 0.00 0.00 0.00 94 1017.7
20260904043019 75 206 0.0 0.0 0.00 0.00 0.00 94 1017.6
20260904042519 75 206 0.0 0.0 0.00 0.00 0.00 94 1017.7
20260904042022 75 206 0.0 1.0 0.00 0.00 0.00 94 1017.6
20260904041517 75 206 0.0 2.0 0.00 0.00 0.00 94 1017.8
20260904041017 75 206 1.0 2.0 0.00 0.00 0.00 94 1017.8
20260904040517 75 213 0.0 0.0 0.00 0.00 0.00 93 1017.7
20260904040015 75 213 0.0 0.0 0.00 0.00 0.00 94 1017.7
20260904035515 75 213 0.0 0.0 0.00 0.00 0.00 93 1017.7
20260904035014 75 213 0.0 0.0 0.00 0.00 0.00 93 1017.8
20260904034513 75 213 0.0 0.0 0.00 0.00 0.00 94 1017.8
20260904034013 75 213 0.0 0.0 0.00 0.00 0.00 94 1017.8
20260904033516 75 213 0.0 3.0 0.00 0.00 0.00 93 1017.8
20260904033013 75 213 0.0 3.0 0.00 0.00 0.00 93 1017.8
20260904032513 76 206 0.0 0.0 0.00 0.00 0.00 92 1017.8
20260904032013 76 214 0.0 0.0 0.00 0.00 0.00 93 1017.7
20260904031513 76 214 0.0 0.0 0.00 0.00 0.00 93 1017.8
20260904031016 76 214 0.0 0.0 0.00 0.00 0.00 92 1017.9
20260904030517 76 214 0.0 0.0 0.00 0.00 0.00 92 1017.8
20260904030013 76 214 0.0 0.0 0.00 0.00 0.00 92 1017.8
20260904025513 76 214 0.0 0.0 0.00 0.00 0.00 92 1017.7
20260904025012 76 126 0.0 0.0 0.00 0.00 0.00 92 1017.7
20260904024511 76 126 0.0 0.0 0.00 0.00 0.00 91 1017.8
20260904024012 76 126 0.0 0.0 0.00 0.00 0.00 91 1017.8
20260904023511 76 126 0.0 0.0 0.00 0.00 0.00 91 1017.9
20260904023012 77 227 0.0 0.0 0.00 0.00 0.00 91 1018.0
20260904022513 77 227 0.0 0.0 0.00 0.00 0.00 90 1018.0
20260904022011 77 227 0.0 0.0 0.00 0.00 0.00 89 1018.1
20260904021511 77 227 0.0 0.0 0.00 0.00 0.00 89 1018.1
20260904021011 77 227 0.0 0.0 0.00 0.00 0.00 89 1018.0
20260904020511 77 227 0.0 0.0 0.00 0.00 0.00 91 1018.0
20260904020011 77 227 0.0 0.0 0.00 0.00 0.00 91 1018.0
20260904015511 78 227 0.0 0.0 0.00 0.00 0.00 91 1017.9
20260904015013 78 127 0.0 0.0 0.00 0.00 0.00 90 1017.9
20260904014510 78 127 0.0 0.0 0.00 0.00 0.00 90 1017.8
20260904014012 78 127 0.0 0.0 0.00 0.00 0.00 90 1017.7
20260904013510 78 127 0.0 0.0 0.00 0.00 0.00 89 1017.7
20260904013009 78 127 0.0 0.0 0.00 0.00 0.00 89 1017.8
20260904012509 78 127 0.0 0.0 0.00 0.00 0.00 89 1017.7
20260904012010 78 127 0.0 0.0 0.00 0.00 0.00 89 1017.4
20260904011525 78 126 0.0 0.0 0.00 0.00 0.00 88 1017.3
20260904011009 79 127 0.0 0.0 0.00 0.00 0.00 88 1017.3
20260904010509 79 127 0.0 0.0 0.00 0.00 0.00 88 1017.3
20260904010012 79 127 0.0 0.0 0.00 0.00 0.00 87 1017.2
20260904005513 79 127 0.0 0.0 0.00 0.00 0.00 86 1017.1
20260904005008 79 127 0.0 0.0 0.00 0.00 0.00 86 1017.2
20260904004509 80 127 0.0 0.0 0.00 0.00 0.00 86 1017.0
20260904004008 80 127 0.0 0.0 0.00 0.00 0.00 85 1017.0
20260904003507 80 127 0.0 0.0 0.00 0.00 0.00 84 1017.0
20260904003012 80 127 0.0 0.0 0.00 0.00 0.00 83 1016.7
20260904002508 81 127 0.0 0.0 0.00 0.00 0.00 82 1016.7
20260904002008 81 127 0.0 0.0 0.00 0.00 0.00 81 1016.6
20260904001507 81 127 0.0 0.0 0.00 0.00 0.00 80 1016.6
20260904001010 82 127 0.0 0.0 0.00 0.00 0.00 78 1016.6
20260904000509 82 127 0.0 0.0 0.00 0.00 0.00 78 1016.6
20260904000010 82 127 0.0 0.0 0.00 0.00 0.00 76 1016.4
20260903235508 82 127 0.0 0.0 0.00 0.00 0.00 76 1016.5
20260903235006 83 127 0.0 0.0 0.00 0.00 0.00 75 1016.3
20260903234506 83 127 0.0 0.0 0.00 0.00 0.00 75 1016.3
20260903234007 84 127 0.0 0.0 0.00 0.00 0.00 73 1016.3
20260903233508 84 127 0.0 0.0 0.00 0.00 0.00 72 1016.2
20260903233006 85 127 0.0 0.0 0.00 0.00 0.00 72 1016.2
20260903232506 85 127 0.0 0.0 0.00 0.00 0.00 72 1016.2
20260903232006 85 127 0.0 0.0 0.00 0.00 0.00 70 1016.2
20260903231508 86 127 0.0 0.0 0.00 0.00 0.00 69 1016.1
20260903231005 86 127 0.0 0.0 0.00 0.00 0.00 67 1016.1
20260903230505 86 127 0.0 0.0 0.00 0.00 0.00 67 1016.1
20260903230005 86 127 0.0 0.0 0.00 0.00 0.00 66 1016.2
20260903225505 87 127 0.0 0.0 0.00 0.00 0.00 65 1016.1
20260903225003 87 127 0.0 0.0 0.00 0.00 0.00 65 1016.1
20260903224508 87 127 0.0 0.0 0.00 0.00 0.00 66 1016.1
20260903224003 88 126 0.0 0.0 0.00 0.00 0.00 63 1016.1
20260903223504 88 126 0.0 0.0 0.00 0.00 0.00 61 1016.1
20260903223004 89 127 0.0 1.0 0.00 0.00 0.00 61 1016.1
20260903222502 89 127 0.0 2.0 0.00 0.00 0.00 60 1016.0
20260903222003 90 106 0.0 1.0 0.00 0.00 0.00 58 1016.0
20260903221503 91 134 0.0 1.0 0.00 0.00 0.00 53 1016.0
20260903221003 91 102 0.0 2.0 0.00 0.00 0.00 55 1016.0
20260903220502 91 153 0.0 2.0 0.00 0.00 0.00 54 1016.0
20260903220001 91 86 0.0 2.0 0.00 0.00 0.00 56 1016.1
20260903215602 91 88 0.0 3.0 0.00 0.00 0.00 55 1016.1
20260903215059 91 117 0.0 3.0 0.00 0.00 0.00 53 1016.1
20260903214559 91 129 0.0 3.0 0.00 0.00 0.00 58 1016.3